Location: Rancho Vista Mobile Home Park
(38.3202°N, 122.4900°W)
Time: 11:39:22
(UTC+00:00)

Daily predictions for brighter satellites

Satellite Brightness Start Highest point End
(mag) Time Altitude Azimuth Time Altitude Azimuth Time Altitude Azimuth
USA 234 3.9 12:00:33 10° NE 12:05:05 49° NE 12:05:05 49° NE
CZ-4C R/B 3.0 12:34:21 56° NNW 12:36:13 80° NE 12:44:35 10° SE
FALCON 9 R/B 3.1 12:36:12 56° SW 12:37:38 67° SSE 12:57:22 10° E
SL-16 R/B 3.3 12:51:28 32° SSW 12:51:28 32° SSW 12:54:35 10° S
Nadezhda 4 Rocket 3.9 12:49:39 26° N 12:53:23 83° E 12:59:32 10° S
Cosmos 1932 4.3 12:53:33 70° WNW 12:53:38 70° WNW 13:00:05 10° NNE
BREEZE-M DEB (TANK) 4.3 12:56:23 46° W 12:58:36 59° NW 13:02:56 10° NE
Cosmos 614 Rocket 4.3 13:00:32 50° SSW 13:00:32 50° SSW 13:04:27 10° S
ALOS 3.9 12:55:25 10° NNE 12:59:41 34° E 13:03:56 10° SSE
Cosmos 1484 Rocket 2.9 13:07:19 10° NNE 13:11:41 67° SSE 13:15:06 10° S
Cosmos 1452 Rocket 3.8 13:06:19 10° S 13:11:32 69° ESE 13:16:48 10° NNE
Cosmos 1461 3.0 13:12:24 66° N 13:12:54 75° ENE 13:17:18 10° SE
Meteor 2-11 Rocket 4.5 13:07:37 10° SSW 13:13:30 50° WNW 13:19:26 10° N
Lacrosse 5 4.0 13:17:22 13° SSW 13:17:22 13° SSW 13:18:17 10° SSW
Cosmos 1140 Rocket 3.3 13:15:01 51° NW 13:16:15 73° WSW 13:21:26 10° S
Okean 1-7 3.5 13:15:29 16° N 13:18:52 61° E 13:23:11 10° SSE
Cosmos 407 Rocket 3.8 13:19:09 45° WSW 13:19:09 45° WSW 13:23:57 10° S
PSLV R/B 3.7 13:17:22 10° N 13:21:30 82° WNW 13:25:36 10° SSW
Meteor 1-27 Rocket 4.2 13:21:55 41° W 13:21:55 41° W 13:27:07 10° SSW
SL-23 DEB 3.8 13:22:46 54° NE 13:22:46 54° NE 13:25:17 10° NE
Meteor 1-20 Rocket 4.2 13:18:13 10° S 13:24:02 87° W 13:29:56 10° N
Cosmos 2263 Rocket 2.0 13:24:15 10° SSW 13:29:48 68° WNW 13:35:22 10° NNE
Cosmos 1634 Rocket 3.9 13:24:26 10° S 13:30:39 89° W 13:36:53 10° N
Cosmos 2084 Rocket 3.5 13:31:25 50° WNW 13:32:15 60° WSW 13:36:34 10° SSE
SWAS 4.3 13:28:14 10° SSW 13:32:32 78° WNW 13:36:52 10° NNE
Cosmos 2034 Rocket 4.5 13:28:14 10° SW 13:33:57 36° WNW 13:39:45 10° N
CZ-4B DEB 4.2 13:29:40 10° NNE 13:35:14 89° ESE 13:40:47 10° SSW
STARLINK 1041 4.4 13:37:59 27° N 13:39:08 34° NE 13:42:24 10° ESE
FALCON 9 DEB 3.2 13:40:30 43° ENE 13:40:30 43° ENE 13:42:26 10° ESE
STARLINK 1038 4.3 13:40:59 27° N 13:42:16 36° NE 13:45:34 10° ESE
MOS 1-B 4.2 13:36:41 10° N 13:42:27 71° WNW 13:48:10 10° SSW
Cosmos 1627 Rocket 4.4 13:37:55 10° N 13:44:11 82° W 13:50:30 10° S
Cosmos 1346 Rocket 2.9 13:40:53 10° S 13:44:43 73° E 13:48:35 10° NNE
STARLINK 1046 4.2 13:43:59 26° NNW 13:45:24 38° NE 13:48:44 10° ESE
FALCON 9 DEB 2.4 13:47:03 62° NE 13:47:03 62° NE 13:49:18 10° ESE
Meteor 1-18 Rocket 4.1 13:42:21 10° N 13:47:56 89° W 13:53:32 10° S
STARLINK 1039 4.1 13:47:00 25° NNW 13:48:33 41° NE 13:51:54 10° ESE
USA 116 4.1 13:44:16 10° SSE 13:48:33 85° ENE 13:53:26 10° N
PSLV R/B 3.2 13:48:49 39° NNE 13:48:49 39° NNE 13:50:56 10° ENE
USA 234 4.1 13:44:02 10° NNE 13:49:36 31° NNW 13:52:27 22° WNW
STARLINK 1045 4.1 13:48:24 25° NNW 13:50:01 42° NE 13:53:24 10° ESE
GEOS 3 Rocket 3.6 13:46:54 10° SSE 13:51:54 60° WSW 13:55:22 20° NW
STARLINK 1027 3.4 13:51:00 32° NNW 13:51:58 47° NE 13:54:48 10° ESE
COSMO-SKYMED 1 2.7 13:47:50 10° S 13:52:02 50° W 13:55:23 16° NNW
STARLINK 1028 3.4 13:51:14 32° NNW 13:52:11 47° NE 13:55:02 10° ESE
STARLINK 1021 3.4 13:51:27 32° NNW 13:52:25 47° NE 13:55:15 10° ESE
Cosmos 2195 Rocket 4.5 13:46:14 10° NNW 13:52:29 64° W 13:58:42 10° S
STARLINK 1019 3.4 13:51:37 31° NNW 13:52:38 48° NE 13:55:31 10° ESE
STARLINK 1012 3.4 13:51:52 32° NNW 13:52:52 48° NE 13:55:42 10° ESE
STARLINK 1010 3.4 13:52:05 32° NNW 13:53:05 48° NE 13:55:55 10° ESE
STARLINK 1026 3.3 13:52:17 32° NNW 13:53:17 48° NE 13:56:07 10° ESE
STARLINK 1013 3.3 13:52:32 31° NNW 13:53:33 49° NE 13:56:24 10° ESE
STARLINK 1009 3.3 13:52:42 31° NNW 13:53:44 49° NE 13:56:34 10° ESE
STARLINK 1015 3.3 13:52:54 31° NNW 13:53:56 49° NE 13:56:47 10° ESE
STARLINK 1016 3.3 13:53:10 31° NNW 13:54:13 50° NE 13:57:05 10° ESE
STARLINK 1008 3.3 13:53:24 31° NNW 13:54:27 50° NE 13:57:17 10° ESE
STARLINK 1014 3.3 13:53:36 31° NNW 13:54:39 50° NE 13:57:31 10° ESE
STARLINK 1025 3.3 13:53:49 31° NNW 13:54:53 51° NE 13:57:44 10° ESE
STARLINK 1017 3.3 13:54:02 31° NNW 13:55:07 51° NE 13:57:58 10° ESE
STARLINK 1034 3.3 13:54:09 30° NNW 13:55:16 51° NE 13:58:08 10° ESE
STARLINK 1023 3.3 13:54:14 31° NNW 13:55:19 51° NE 13:58:10 10° ESE
STARLINK 1007 3.2 13:54:28 31° NNW 13:55:34 52° NE 13:58:26 10° ESE
STARLINK 1048 3.2 13:54:38 31° NNW 13:55:44 52° NE 13:58:36 10° ESE
STARLINK 1052 3.2 13:54:46 30° NNW 13:55:52 52° NE 13:58:44 10° ESE
STARLINK 1049 3.2 13:54:54 30° NNW 13:56:01 52° NE 13:58:53 10° ESE
STARLINK 1051 3.2 13:55:06 30° NNW 13:56:14 53° NE 13:59:06 10° ESE
STARLINK 1037 3.2 13:55:19 30° NNW 13:56:26 53° NE 13:59:18 10° ESE
FENGYUN 3A 3.6 13:51:11 10° N 13:56:31 67° WNW 14:01:50 10° SSW
STARLINK 1059 3.2 13:55:32 30° NNW 13:56:41 53° NE 13:59:33 10° ESE
STARLINK 1057 3.2 13:55:45 30° NNW 13:56:55 54° NE 13:59:46 10° ESE
Cosmos 2142 Rocket 4.5 13:50:49 10° SSW 13:57:11 73° W 14:03:35 10° N
Cosmos 2221 Rocket 3.9 13:52:54 10° N 13:57:18 67° E 14:01:41 10° SSE
STARLINK 1068 3.2 13:56:12 30° NNW 13:57:22 54° NE 14:00:14 10° ESE
STARLINK 1029 3.2 13:56:26 30° NNW 13:57:36 55° NE 14:00:29 10° ESE
STARLINK 1060 3.1 13:56:38 30° NNW 13:57:48 55° NE 14:00:40 10° ESE
STARLINK 1030 3.2 13:56:49 29° NNW 13:58:02 56° NE 14:00:57 10° ESE
STARLINK 1040 3.0 13:57:04 31° NNW 13:58:14 60° NE 14:01:07 10° ESE
STARLINK 1020 3.1 13:57:04 29° NNW 13:58:16 56° NE 14:01:08 10° ESE
STARLINK 1033 3.1 13:57:43 29° NNW 13:58:57 57° NE 14:01:49 10° ESE
STARLINK 1031 3.1 13:57:53 29° NNW 13:59:07 57° NE 14:01:59 10° ESE
STARLINK 1024 3.1 13:58:07 29° NNW 13:59:24 58° NE 14:02:18 10° ESE
STARLINK 1035 3.1 13:58:19 29° NNW 13:59:34 58° NE 14:02:26 10° ESE
STARLINK 1032 3.1 13:58:35 29° NNW 13:59:50 58° NE 14:02:43 10° ESE
STARLINK 1011 3.1 13:58:44 28° NNW 14:00:03 59° NE 14:02:58 10° ESE
STARLINK 1036 3.0 13:59:01 28° NNW 14:00:18 59° NE 14:03:11 10° ESE
STARLINK 1047 3.0 13:59:24 28° NNW 14:00:41 60° NE 14:03:34 10° ESE
Cosmos 1092 Rocket 4.2 13:54:58 10° NNW 14:00:45 44° W 14:06:29 10° SSW
Cosmos 1844 Rocket 3.9 13:57:37 10° S 14:02:53 45° ESE 14:08:12 10° NE
CZ-4B R/B 3.2 13:58:29 10° N 14:04:07 79° WNW 14:09:46 10° SSW
Cosmos 1703 Rocket 4.4 14:05:15 16° NW 14:07:57 29° W 14:11:44 10° SSW
Okean O Rocket 1.6 14:04:47 10° N 14:09:06 58° WNW 14:13:25 10° SSW
Okean 3 3.7 14:06:17 10° N 14:10:28 71° E 14:14:40 10° SSE
Cosmos 1733 Rocket 3.4 14:07:20 10° S 14:11:36 69° E 14:15:55 10° NNE
Geosat 4.4 14:06:58 10° S 14:11:42 42° WSW 14:16:14 11° NW
Cosmos 1110 Rocket 4.0 14:07:49 10° SSW 14:13:00 85° ESE 14:18:12 10° NNE
Cosmos 1340 3.1 14:10:44 10° SSW 14:14:15 38° WNW 14:17:48 10° N
METEOR-M 4.5 14:10:53 10° N 14:15:54 42° WNW 14:20:53 10° SW
Cosmos 1943 3.5 14:12:32 10° NW 14:17:52 46° WSW 14:23:11 10° S
Cosmos 1500 3.5 14:14:26 10° S 14:18:15 71° E 14:22:04 10° NNE
Cosmos 1869 Rocket 4.5 14:17:56 10° SW 14:21:32 25° WNW 14:25:09 10° NNW
STARLINK 1044 2.7 14:20:10 18° NW 14:22:10 66° SW 14:24:59 10° SE
Cosmos 1515 3.6 14:18:55 10° N 14:22:44 80° W 14:26:33 10° S
CZ-4 R/B 4.5 14:22:03 10° ENE 14:24:22 15° E 14:26:41 10° SE
CZ-4C R/B 4.2 14:19:35 13° WNW 14:24:23 23° WSW 14:30:31 10° SSW
Starlink Launch 2 leader 3.3 14:23:09 18° W 14:24:32 32° SW 14:26:45 10° SSE
Cosmos 371 Rocket 3.2 14:20:04 10° SSW 14:24:53 74° WNW 14:29:45 10° NNE
Okean-O 4.4 14:22:53 10° NNE 14:27:00 37° E 14:31:06 10° SSE
SMAP 3.3 14:23:00 10° NNE 14:27:40 75° ESE 14:32:18 10° S
Okean 1 4.3 14:24:36 10° NNW 14:27:58 27° W 14:31:18 10° SSW
Starlink Launch 2 trailer 3.5 14:26:42 16° W 14:28:12 28° SW 14:30:22 10° SSE
STARLINK 1050 3.2 14:27:17 12° NW 14:30:25 73° SW 14:33:54 10° SE
Cosmos 44 3.4 14:25:54 10° SW 14:30:31 46° NW 14:34:55 10° NNE
STARLINK 1055 3.2 14:30:13 12° NW 14:33:28 68° SW 14:36:56 10° SE
Radarsat Rocket 4.2 14:29:01 10° N 14:35:16 69° WNW 14:42:18 10° SSW
STARLINK 1022 3.3 14:32:41 11° NW 14:36:01 64° SW 14:39:29 10° SE
NOSS 3-2 (A) 3.7 14:30:50 10° SSW 14:36:23 69° ESE 14:42:37 10° NE
Meteor 2-13 Rocket 4.5 14:30:41 10° NNW 14:36:47 69° W 14:42:52 10° S
ALOS 3.4 14:33:18 10° NNW 14:36:52 22° WNW 14:40:26 10° WSW
STARLINK 1042 3.4 14:35:58 10° NW 14:39:25 58° SW 14:42:51 10° SE
Meteor 1-5 Rocket 4.3 14:36:01 10° SSW 14:41:57 69° W 14:47:49 10° N
STARLINK 1056 3.5 14:39:05 10° WNW 14:42:31 54° SW 14:45:57 10° SSE
Cosmos 1741 Rocket 4.5 14:37:57 10° NNW 14:42:51 42° WSW 14:47:44 10° S
Cosmos 2266 Rocket 4.1 14:37:55 10° N 14:44:10 88° E 14:50:16 10° S
Cosmos 1674 Rocket 3.6 14:40:02 10° N 14:44:24 85° E 14:48:41 10° S
FALCON 9 DEB 4.3 14:43:24 10° W 14:44:53 15° SW 14:46:21 10° S
STARLINK 1054 3.6 14:42:14 10° WNW 14:45:38 49° SW 14:49:02 10° SSE
USA 238 DEB 3.7 14:39:05 10° SSW 14:45:44 88° NW 14:52:37 10° NNE
USA 238 3.7 14:39:12 10° SSW 14:45:50 89° WNW 14:52:43 10° NNE
AQUARIUS 4.1 14:41:56 10° N 14:46:25 74° WNW 14:50:52 10° SSW
STARLINK 1062 3.7 14:45:12 10° WNW 14:48:35 46° SW 14:51:58 10° SSE
CORIOLIS 4.2 14:43:14 10° NNE 14:48:41 89° ESE 14:54:03 10° SSW
Cosmos 405 2.9 14:45:28 10° N 14:49:02 80° W 14:52:32 10° S
Envisat 3.7 14:44:11 10° NNE 14:49:14 62° E 14:54:15 10° S
Meteor 2-4 Rocket 3.8 14:43:56 10° NNW 14:49:16 54° W 14:54:28 10° S
Cosmos 1536 2.8 14:47:03 10° SSW 14:51:06 73° W 14:55:10 10° N
